Location: Altenst�hlen
(53.5567°N, 8.9425°E)
Time: 02:38:32
(UTC+00:00)

Abrixas rocket - Pass Details

Date: 23 October 2019
Orbit: 359 x 368 km, 48.4° (Epoch: 12 November)

Event Time Altitude Azimuth Distance (km) Brightness Sun altitude
Rises 17:16:42 0° 243° (WSW) 2,221 7.4 -10.4°
Reaches altitude 10° 17:18:54 10° 231° (SW) 1,372 5.8 -10.7°
Maximum altitude 17:21:35 27° 170° (S) 747 3.5 -11.1°
Enters shadow 17:23:27 16° 119° (ESE) 1,095 3.9 -11.4°
